Location: B?jaj?g
(11.7167°N, 92.6667°E)
Time: 08:58:37
(UTC+00:00)

Okean 1 - Visible Passes

Search period start: 20 June 2021 00:00
Search period end: 30 June 2021 00:00
Orbit: 537 x 554 km, 82.5° (Epoch: 19 June)

Date Brightness Start Highest point End Pass type
(mag) Time Alt. Az. Time Alt. Az. Time Alt. Az.
20 Jun 4.5 22:27:36 10° NNE 22:31:28 45° E 22:35:20 10° SSE visible
21 Jun 4.3 22:22:02 10° N 22:25:57 49° E 22:29:50 10° SSE visible
22 Jun 4.1 22:16:28 10° N 22:20:24 53° E 22:24:22 10° SSE visible
23 Jun 3.9 22:10:55 10° N 22:14:53 58° E 22:18:52 10° SSE visible
24 Jun 3.7 22:05:22 10° N 22:09:22 64° E 22:13:22 10° SSE visible
25 Jun 3.5 21:59:50 10° N 22:03:51 70° E 22:07:52 10° S visible
26 Jun 3.4 21:54:17 10° N 21:58:19 76° E 22:01:07 19° S visible
27 Jun 3.3 21:48:45 10° N 21:52:48 83° E 21:54:11 40° S visible
28 Jun 3.2 21:43:14 10° N 21:47:16 90° ENE 21:47:25 83° S visible
29 Jun 3.8 21:37:42 10° N 21:40:50 53° NNW 21:40:50 53° NNW visible
